TimeCDT,TemperatureF,Dew PointF,Humidity,Sea Level PressureIn,VisibilityMPH,Wind Direction,Wind SpeedMPH,Gust SpeedMPH,PrecipitationIn,Events,Conditions,WindDirDegrees,DateUTC
12:53 AM,34.0,21.0,59,30.38,10.0,North,5.8,-,N/A,,Clear,350,2013-03-26 05:53:00
1:53 AM,33.1,19.9,59,30.38,10.0,NW,4.6,-,N/A,,Clear,320,2013-03-26 06:53:00
2:53 AM,30.9,19.9,64,30.38,10.0,NW,4.6,-,N/A,,Clear,320,2013-03-26 07:53:00
3:53 AM,30.9,19.0,61,30.38,10.0,NW,4.6,-,N/A,,Clear,310,2013-03-26 08:53:00
4:53 AM,30.0,19.0,64,30.38,10.0,NW,3.5,-,N/A,,Clear,310,2013-03-26 09:53:00
5:53 AM,30.0,19.0,64,30.39,10.0,NW,4.6,-,N/A,,Clear,310,2013-03-26 10:53:00
6:53 AM,30.0,19.0,64,30.41,10.0,Calm,Calm,-,N/A,,Clear,0,2013-03-26 11:53:00
7:53 AM,30.0,21.0,69,30.44,10.0,WSW,3.5,-,N/A,,Clear,250,2013-03-26 12:53:00
8:53 AM,36.0,21.0,55,30.47,10.0,NW,9.2,-,N/A,,Clear,320,2013-03-26 13:53:00
9:53 AM,39.0,21.0,49,30.48,10.0,NW,10.4,-,N/A,,Clear,320,2013-03-26 14:53:00
10:53 AM,42.1,21.0,43,30.48,10.0,NNW,6.9,16.1,N/A,,Clear,340,2013-03-26 15:53:00
11:53 AM,44.1,19.9,38,30.47,10.0,NW,9.2,-,N/A,,Clear,310,2013-03-26 16:53:00
12:53 PM,46.0,23.0,40,30.46,10.0,North,9.2,16.1,N/A,,Clear,350,2013-03-26 17:53:00
1:53 PM,48.9,21.9,35,30.43,10.0,NW,10.4,-,N/A,,Clear,310,2013-03-26 18:53:00
2:53 PM,50.0,23.0,35,30.40,10.0,WNW,6.9,-,N/A,,Clear,300,2013-03-26 19:53:00
3:53 PM,51.1,23.0,33,30.37,10.0,NW,8.1,-,N/A,,Clear,310,2013-03-26 20:53:00
4:53 PM,51.1,21.9,32,30.36,10.0,Variable,4.6,-,N/A,,Clear,0,2013-03-26 21:53:00
5:53 PM,52.0,21.9,31,30.35,10.0,WNW,8.1,-,N/A,,Clear,300,2013-03-26 22:53:00
6:53 PM,51.1,21.9,32,30.35,10.0,Calm,Calm,-,N/A,,Clear,0,2013-03-26 23:53:00
7:53 PM,45.0,26.1,48,30.35,10.0,Calm,Calm,-,N/A,,Clear,0,2013-03-27 00:53:00
8:53 PM,43.0,24.1,47,30.35,10.0,South,4.6,-,N/A,,Clear,180,2013-03-27 01:53:00
9:53 PM,39.9,28.0,63,30.36,10.0,Calm,Calm,-,N/A,,Clear,0,2013-03-27 02:53:00
10:53 PM,37.9,27.0,65,30.37,10.0,Calm,Calm,-,N/A,,Clear,0,2013-03-27 03:53:00
11:53 PM,37.9,26.1,62,30.37,10.0,South,4.6,-,N/A,,Clear,180,2013-03-27 04:53:00